Find Starlink 32201

NORAD ID: 61512 Int'l Des: 2024-183 Owner: SPXS Country: US Constellation: starlink operational
LEOCIRCULAR

現在のビュー

3D地球を読み込み中...

About Starlink 32201

Starlink 32201 (NORAD 61512) is a starlink constellation satellite (v2 mini) launched Oct 15, 2024 by SPXS of US. It operates in LEO, CIRCULAR orbit with a mass of 730.00 kg.

次回通過

Passes for default location (London). Set your location on the main map for personalized predictions.

高度履歴

Loading altitude history...

軌道要素

1 61512U 24183D 26255.21767933 .00000495 00000-0 25800-4 0 9998
2 61512 53.1608 340.2179 0001501 81.5778 278.5395 15.34390047108429
Epoch: Sep 12, 2026 • Age: 16 hours

現在のステータス

高度 466.5 km
遠地点 / 近地点 N/A
速度 7.64 km/s
衛星直下点 45.25°N, 77.06°E
打ち上げ日 Oct 15, 2024
運用期間 1.9 years
タイプ internet

技術仕様

分類 Payload
質量 730.00 kg
乾燥質量 700.00 kg
総質量 730.00 kg
長さ 0.30 m
直径 4.10 m
スパン 29.00 m
形状 Box + pan
製造者 SPXS
バスタイプ Starlink V2M
フェーズステータス In Orbit
所有者/国 SPXS/US

Most Searched